Location: North Bay
(46.3091°N, 79.4608°W)
Time: 10:52:38
(UTC-05:00)

ISS - Visible Passes

Search period start: 19 February 2018 00:00
Search period end: 01 March 2018 00:00
Orbit: 403 x 407 km, 51.6° (Epoch: 20 February)

Date Brightness Start Highest point End Pass type
(mag) Time Alt. Az. Time Alt. Az. Time Alt. Az.
27 Feb -1.2 05:43:01 10° S 05:45:21 18° SE 05:47:41 10° E visible
28 Feb -0.7 04:52:45 10° SE 04:53:18 10° SE 04:53:51 10° ESE visible
28 Feb -3.4 06:25:58 10° SW 06:29:13 64° SSE 06:32:28 10° ENE visible
